AirNav   Air Wisconsin pilot careers
 
 785 users online  

3T2 Wolfe Air Park
Manvel, Texas, USA

GOING TO MANVEL?


FAA INFORMATION EFFECTIVE 06 DECEMBER 2018

Location

FAA Identifier: 3T2
Lat/Long: 29-28-44.7000N / 095-19-35.6000W
29-28.745000N / 095-19.593333W
29.4790833 / -95.3265556
(estimated)
Elevation: 55 ft. / 17 m (estimated)
Variation: 06E (1985)
From city: 2 miles NE of MANVEL, TX
Time zone: UTC -6 (UTC -5 during Daylight Saving Time)
Zip code: 77578

Airport Operations

Airport use: Open to the public
Activation date: 01/1981
Control tower: no
ARTCC: HOUSTON CENTER
FSS: MONTGOMERY COUNTY FLIGHT SERVICE STATION
FOR FP FILING CALL CXO FSS 1-800-992-7433.
NOTAMs facility: CXO (NOTAM-D service available)
Attendance: DAYLIGHT HOURS
Wind indicator: yes
Segmented circle: no

Airport Communications

CTAF: 122.9
WX ASOS at LVJ (5 nm NE): 118.525 (281-992-1853)
WX AWOS-3 at AXH (8 nm W): 123.625 (281-431-6572)
WX ASOS at HOU (10 nm N): PHONE 713-847-1462
WX ASOS at SGR (19 nm NW): 118.125 (281-242-7605)

Nearby radio navigation aids

VOR radial/distance  VOR name  Freq  Var
HUBr189/10.9HOBBY VOR/DME117.1005E
VUHr292/27.1SCHOLES VOR/DME113.0006E
IAHr173/28.7HUMBLE VORTAC116.6005E
MHFr255/30.5TRINITY VOR/DME113.6007E

 
NDB name  Hdg/Dist  Freq  Var  ID
GALVESTON278/31.120608EGLS --. .-.. ...
NIXIN186/31.432605EBVP -... ...- .--.

Airport Services

Parking: hangars and tiedowns
Airframe service: MAJOR
Powerplant service: MAJOR

Runway Information

Runway 2/20

Dimensions: 2910 x 80 ft. / 887 x 24 m
Surface: turf, in good condition
RUNWAY 2  RUNWAY 20
Latitude: 29-28.529022N29-28.961888N
Longitude: 095-19.711895W095-19.474193W
Elevation: 54.0 ft.53.0 ft.
Traffic pattern: leftleft
Runway heading: 020 magnetic, 026 true200 magnetic, 206 true
Obstructions: 40 ft. trees, 188 ft. from runway, 119 ft. right of centerline, 4:1 slope to clear15 ft. road, 50 ft. from runway, 125 ft. left of centerline, 3:1 slope to clear

Airport Ownership and Management from official FAA records

Ownership: Privately-owned
Owner: WOLFE AIRPARK CIVIC CLUB INC
PO BOX 941
MANVEL, TX 77578
Phone 281-309-1959
JOHN HEITZ, CLUB PRESIDENT; KEN ECKEL VP; DAVE VONTESMAR, TREASURER.
Manager: JOHN HEITZ
8802 BELCHER ROAD
MANVEL, TX 77578
Phone 281-309-1959
FBO: ANGEL AIR SERVICES 281-309-1959.

Airport Operational Statistics

Aircraft based on the field: 75
Single engine airplanes: 74
Multi engine airplanes: 1
    
Aircraft operations: avg 44/day *
80% local general aviation
20% transient general aviation
* for 12-month period ending 31 December 2016

Additional Remarks

DITCH CROSSING RY 20 THLD.
FIRST 400 FT OF RY UNUSABLE AT EACH END DURG WET WEATHER.
FOR CD CTC HOUSTON APCH AT 281-443-5844 TO CNL IFR CALL 281-443-5888.

Instrument Procedures

There are no published instrument procedures at 3T2.

Some nearby airports with instrument procedures:

KLVJ - Pearland Regional Airport (5 nm NE)
KAXH - Houston Southwest Airport (8 nm W)
KHOU - William P Hobby Airport (10 nm N)
KEFD - Ellington Airport (12 nm NE)
T41 - La Porte Municipal Airport (18 nm NE)
KSGR - Sugar Land Regional Airport (19 nm NW)
 
Loc | Ops | Rwys | IFR | FBO | Links
Com | Nav | Svcs | Stats | Notes


 
Area around 3T2 (Wolfe Air Park)
 
Road maps at: MapQuest Bing Google
 
Aerial photo
WARNING: Photo may not be current or correct
Aerial photo of 3T2 (Wolfe Air Park)
Do you have a better or more recent aerial photo of Wolfe Air Park that you would like to share? If so, please send us your photo.

 
Sectional chart

 
Airport distance calculator
Flying to Wolfe Air Park? Find the distance to fly.

From to 3T2

Sunrise and sunset
Times for 15-Dec-2018
 Local
(UTC-6)
 Zulu
(UTC)
Morning civil twilight06:4312:43
Sunrise07:0913:09
Sunset17:2323:23
Evening civil twilight17:5023:50

Current date and time
Zulu (UTC)  16-Dec-2018 00:06:39
Local (UTC-6)  15-Dec-2018 18:06:39
 
METAR
KLVJ 
5nm NE 
152353Z AUTO 31005KT 10SM CLR 14/01 A3017 RMK AO2 SLP214 T01440011 10183 20144 51010
KAXH 
8nm W 
152355Z AUTO 32004KT 10SM CLR 13/00 A3017 RMK AO2 T01310001 10181 20131
KHOU 
10nm N 
152353Z 30005KT 10SM FEW250 15/01 A3015 RMK AO2 SLP215 T01500006 10183 20150 51010
KEFD 
11nm NE 
152350Z 29010KT 10SM FEW250 14/01 A3017
KSGR 
19nm NW 
152353Z 33004KT 10SM CLR 15/M01 A3016 RMK AO2 SLP216 T01501006 10183 20144 52008
TAF
KHOU 
10nm N 
152127Z 1521/1618 30011KT P6SM SKC FM160200 34005KT P6SM FEW250 FM161500 04005KT P6SM SCT250
KEFD 
11nm NE 
152000Z 1520/1702 32012KT 9999 SKC QNH3012INS BECMG 1605/1606 VRB06KT 9999 SCT220 QNH3024INS TX17/1521Z TN06/1612Z
KSGR 
19nm NW 
152127Z 1521/1618 31011KT P6SM SKC FM160200 32005KT P6SM FEW250 FM161500 04005KT P6SM SCT250
NOTAMs
Click for the latest NOTAMs
NOTAMs are issued by the DoD/FAA and will open in a separate window not controlled by AirNav.

 

 
 

Would you like to see your business listed on this page?

 If your business provides an interesting product or service to pilots, flight crews, aircraft, or users of the Wolfe Air Park, you should consider listing it here.  To start the listing process, click on the button below
 
Add a business
 

Other Pages about Wolfe Air Park

Update a link
 
Copyright © AirNav, LLC. All rights reserved. Privacy Policy  Contact